Location: Cucq
(50.4773°N, 1.6202°E)
Time: 06:21:15
(UTC+00:00)

IDEFIX/ARIANE 42P - Pass Details

Date: 07 August 2020
Orbit: 786 x 802 km, 98.4° (Epoch: 23 September)

Event Time Altitude Azimuth Distance (km) Brightness Sun altitude
Rises 03:48:32 0° 11° (N) 3,293 6.6 -6.5°
Reaches altitude 10° 03:50:54 10° 7° (N) 2,360 5.7 -6.2°
Maximum altitude 03:55:57 54° 292° (WNW) 960 2.9 -5.5°
Drops below altitude 10° 04:01:00 10° 216° (SW) 2,351 4.4 -4.9°
Enters shadow 04:02:43 - 212° (SSW) 3,026 5.0 -4.6°
